GOES 10 [-]

Last updated on Jan. 18, 2020, 4:37 a.m. UTC

1 24786U 97019A   20016.79648160 -.00000228  00000-0  00000-0 0  9996
2 24786  10.4274  36.1944 0026154 191.7115 164.5426  0.99125844 82838
UTC
Height (km)
Latitude
Longitude
Inclination
Orbital Period
UTC large
Height (km)
Speed (km/s)
/
Latitude / Longitude
Inclination (degrees)
Orbital Period (minutes)
Azimuth
Elevation
Range (km)
Doppler Factor
iOS Compass Heading
iOS Angle

Next 30 passes for location: Hong Kong

Rise time Rise Azimuth (degrees) Set time Set Azimuth (degrees) Duration Max altitude (degrees)

No matching passes for this satellites